HST,Max TemperatureF,Mean TemperatureF,Min TemperatureF,Max Dew PointF,MeanDew PointF,Min DewpointF,Max Humidity, Mean Humidity, Min Humidity, Max Sea Level PressureIn, Mean Sea Level PressureIn, Min Sea Level PressureIn, Max VisibilityMiles, Mean VisibilityMiles, Min VisibilityMiles, Max Wind SpeedMPH, Mean Wind SpeedMPH, Max Gust SpeedMPH,PrecipitationIn, CloudCover, Events, WindDirDegrees
2013-1-1,75,73,71,72,69,64,95,85,73,30.15,30.10,30.06,10,8,6,21,10,28,0.03,7,Rain,30
2013-1-2,77,74,71,74,70,67,97,86,78,30.12,30.08,30.04,10,8,6,15,11,24,0.11,8,Rain,60
2013-1-3,77,73,69,73,68,63,100,85,72,30.09,30.07,30.03,10,8,6,17,11,28,0.17,8,Rain,59
2013-1-4,77,75,73,67,65,62,78,72,64,30.15,30.10,30.05,10,9,6,20,15,32,0.03,7,Rain,69
2013-1-5,77,74,71,70,66,64,88,76,68,30.18,30.14,30.09,10,8,6,20,16,38,0.16,7,Rain,79
2013-1-6,80,76,71,68,65,63,83,71,61,30.16,30.10,30.03,10,8,6,18,13,33,0.01,6,Rain,84
2013-1-7,80,76,71,68,66,64,80,71,61,30.11,30.05,29.99,10,8,6,16,12,26,0.04,7,Rain,74
2013-1-8,78,74,71,70,66,64,83,76,66,30.01,29.98,29.91,10,9,6,17,10,26,0.15,6,Rain,78
2013-1-9,80,75,70,73,66,64,99,77,61,30.03,29.98,29.92,10,9,6,17,11,25,0.04,7,Rain,81
2013-1-10,82,76,71,65,64,61,75,68,55,30.02,29.98,29.93,10,9,6,14,9,22,0.00,5,,86
2013-1-11,80,76,71,68,65,63,83,72,59,29.99,29.94,29.88,10,9,6,15,9,22,0.00,4,,58
2013-1-12,80,76,71,69,67,66,85,75,63,29.98,29.93,29.88,10,9,6,12,4,17,0.03,5,Rain,87
2013-1-13,82,76,71,69,67,64,86,76,61,29.98,29.94,29.90,10,9,6,12,1,16,0.00,3,,107
2013-1-14,80,75,70,70,67,66,91,77,64,29.95,29.92,29.88,10,8,3,15,6,22,0.78,7,Rain,71
2013-1-15,80,74,68,66,63,56,88,71,51,29.95,29.91,29.86,10,9,6,14,3,,0.02,5,Rain,339
2013-1-16,80,74,69,64,59,56,72,61,48,29.96,29.90,29.83,10,10,10,14,4,,0.00,3,,354
2013-1-17,77,72,67,64,61,58,87,68,52,29.92,29.88,29.82,10,10,6,8,3,,0.04,5,Rain,325
2013-1-18,78,73,68,63,59,53,78,63,49,29.95,29.90,29.83,10,10,10,17,6,28,0.09,3,Rain,346
2013-1-19,80,74,68,65,56,52,83,56,45,30.04,29.98,29.93,10,10,10,17,13,23,0.00,5,,355
2013-1-20,78,73,68,57,55,54,65,56,47,30.09,30.04,29.99,10,10,10,17,14,21,0.00,4,,19
2013-1-21,78,73,68,62,59,55,76,62,53,30.14,30.10,30.05,10,10,6,12,9,20,0.00,6,,54
2013-1-22,80,74,68,65,62,58,81,63,51,30.15,30.10,30.06,10,9,6,13,9,18,0.00,4,,69
2013-1-23,78,73,68,67,63,56,88,72,57,30.10,30.05,30.01,10,9,6,13,8,22,0.00,7,Rain,81
2013-1-24,75,72,69,68,66,64,94,82,70,30.10,30.05,30.01,10,8,6,13,7,21,0.15,6,Rain,94
2013-1-25,81,75,69,68,65,62,88,78,60,30.07,30.03,29.97,10,8,6,9,1,,0.01,3,,67
2013-1-26,79,74,68,65,63,60,85,71,56,30.02,29.97,29.91,10,8,7,14,3,20,0.00,3,,177
2013-1-27,77,73,69,68,64,62,82,74,64,30.03,29.95,29.86,10,7,2,23,9,28,1.03,7,Rain,318
2013-1-28,77,72,68,67,65,62,91,82,66,30.00,29.96,29.88,10,8,6,10,4,,1.50,8,Rain,156
2013-1-29,77,72,68,67,65,62,90,80,68,30.04,29.97,29.92,10,10,10,8,2,,0.00,5,,20
2013-1-30,79,73,67,67,64,61,84,76,62,30.09,30.04,30.00,10,10,5,9,3,,0.01,2,Rain,28
2013-1-31,80,74,69,66,65,63,88,74,61,30.13,30.08,30.04,10,10,10,13,9,21,0.00,6,Rain,48